Lihue, HI

4:46 PM HST on January 16, 2017 (GMT -1000)
Lihue

Weather History for PHLI - April, 2014

Change the Weather History Date:

Friday, April 18, 2014

  Actual Average Record
Temperature  
Mean Temperature 76 °F 74 °F  
Max Temperature 80 °F 79 °F 86 °F (1981)
Min Temperature 72 °F 69 °F 59 °F (1967)
Degree Days  
Heating Degree Days 0 0  
Month to date heating degree days 0 0  
Since 1 July heating degree days 0 0  
Cooling Degree Days 11 9  
Month to date cooling degree days 170 161  
Year to date cooling degree days 757 795  
Growing Degree Days 25 (Base 50)    
Moisture  
Dew Point 70 °F    
Average Humidity 86    
Maximum Humidity 93    
Minimum Humidity 79    
Precipitation  
Precipitation T in 0.06 in 0.66 in (1976)
Month to date precipitation 0.26 1.52  
Year to date precipitation 12.59 13.04  
Snow  
Snow 0.00 in - - ()
Month to date snowfall 0.0  
Since 1 July snowfall 0.0  
Snow Depth 0.00 in    
Sea Level Pressure  
Sea Level Pressure 30.13 in    
Wind  
Wind Speed 15 mph (NE)    
Max Wind Speed 20 mph    
Max Gust Speed 37 mph    
Visibility 10 miles    
Events      
T = Trace of Precipitation, MM = Missing Value Source: NWS Daily Summary

Daily Weather History Graph

Daily Weather History Graph

Search for Another Location

Airport or City:

Trip Planner

Search our weather history database for the weather conditions in past years. The results will help you decide how hot, cold, wet, or windy it might be!

Date:

Astronomy

Apr. 18, 2014 Rise Set
Actual Time 6:15 AM HST 6:58 PM HST
Civil Twilight 5:52 AM HST 7:21 PM HST
Nautical Twilight 5:25 AM HST 7:48 PM HST
Astronomical Twilight 4:57 AM HST 8:15 PM HST
Moon 10:38 PM HST (4/18) 9:03 AM HST (4/18)
Length of Visible Light 13h 29m
Length of Day
12h 43m
Waning Gibbous, 85% of the Moon is Illuminated
Apr 18
Waning Gibbous
Apr 21
Last Quarter
Apr 28
New
May 6
First Quarter
May 14
Full

Hourly Weather History & Observations

Time (HST) Temp. Dew Point Humidity Pressure Visibility Wind Dir Wind Speed Gust Speed Precip Events Conditions
12:05 AM 73.4 °F 69.8 °F 88% 30.16 in 10.0 mi NNE 16.1 mph - N/A   Overcast
12:12 AM 73.4 °F 69.8 °F 88% 30.16 in 10.0 mi NNE 18.4 mph - N/A   Overcast
12:53 AM 73.0 °F 69.1 °F 87% 30.15 in 10.0 mi NNE 13.8 mph - N/A   Overcast
1:07 AM 73.4 °F 69.8 °F 88% 30.15 in 10.0 mi NNE 16.1 mph - N/A   Overcast
1:31 AM 73.4 °F 69.8 °F 88% 30.14 in 10.0 mi NNE 15.0 mph - N/A   Overcast
1:53 AM 73.0 °F 69.1 °F 87% 30.13 in 10.0 mi NE 17.3 mph - N/A   Overcast
2:07 AM 73.4 °F 69.8 °F 88% 30.13 in 10.0 mi NNE 16.1 mph - N/A   Overcast
2:53 AM 73.0 °F 69.1 °F 87% 30.11 in 10.0 mi NE 17.3 mph - N/A   Overcast
3:53 AM 73.0 °F 69.1 °F 87% 30.11 in 10.0 mi NE 15.0 mph - N/A   Overcast
4:38 AM 73.4 °F 69.8 °F 88% 30.12 in 10.0 mi NE 17.3 mph - N/A   Overcast
4:50 AM 73.4 °F 69.8 °F 88% 30.12 in 10.0 mi NNE 16.1 mph - N/A   Overcast
4:53 AM 73.0 °F 69.1 °F 87% 30.12 in 9.0 mi NE 13.8 mph - N/A   Overcast
5:16 AM 73.4 °F 69.8 °F 88% 30.12 in 10.0 mi NE 17.3 mph - 0.00 in   Overcast
5:29 AM 71.6 °F 69.8 °F 94% 30.12 in 10.0 mi NE 17.3 mph - 0.00 in   Mostly Cloudy
5:36 AM 71.6 °F 69.8 °F 94% 30.12 in 10.0 mi NNE 17.3 mph - 0.00 in   Mostly Cloudy
5:53 AM 73.0 °F 70.0 °F 90% 30.12 in 10.0 mi NNE 17.3 mph - 0.00 in   Mostly Cloudy
6:19 AM 73.4 °F 69.8 °F 88% 30.13 in 10.0 mi NE 16.1 mph - N/A   Overcast
6:43 AM 73.4 °F 69.8 °F 88% 30.14 in 10.0 mi NE 18.4 mph - 0.00 in   Overcast
6:53 AM 73.0 °F 70.0 °F 90% 30.13 in 10.0 mi NE 17.3 mph - 0.00 in   Overcast
7:20 AM 73.4 °F 69.8 °F 88% 30.15 in 10.0 mi NNE 12.7 mph - 0.00 in   Overcast
7:37 AM 73.4 °F 71.6 °F 94% 30.15 in 10.0 mi NE 15.0 mph - 0.00 in   Overcast
7:53 AM 73.9 °F 71.1 °F 91% 30.15 in 10.0 mi NE 16.1 mph - 0.00 in   Overcast
8:26 AM 73.4 °F 71.6 °F 94% 30.16 in 10.0 mi NE 13.8 mph - N/A   Overcast
8:48 AM 75.2 °F 71.6 °F 89% 30.16 in 10.0 mi NE 15.0 mph - N/A   Overcast
8:53 AM 75.9 °F 71.1 °F 85% 30.16 in 10.0 mi NE 11.5 mph - N/A   Overcast
9:04 AM 77.0 °F 71.6 °F 83% 30.16 in 10.0 mi NE 13.8 mph - N/A   Mostly Cloudy
9:30 AM 78.8 °F 71.6 °F 78% 30.17 in 10.0 mi NE 16.1 mph - N/A   Mostly Cloudy
9:53 AM 79.0 °F 71.1 °F 77% 30.16 in 10.0 mi NE 15.0 mph - N/A   Mostly Cloudy
10:00 AM 78.8 °F 69.8 °F 74% 30.17 in 10.0 mi NE 16.1 mph - N/A   Mostly Cloudy
10:40 AM 78.8 °F 71.6 °F 78% 30.16 in 10.0 mi NE 16.1 mph - N/A   Scattered Clouds
10:53 AM 78.8 °F 71.6 °F 78% 30.16 in 10.0 mi NE 13.8 mph - N/A   Scattered Clouds
11:14 AM 78.8 °F 71.6 °F 78% 30.16 in 10.0 mi NE 13.8 mph - N/A   Mostly Cloudy
11:53 AM 79.0 °F 72.0 °F 79% 30.14 in 10.0 mi NE 12.7 mph - N/A   Mostly Cloudy
12:13 PM 78.8 °F 71.6 °F 78% 30.15 in 10.0 mi ENE 11.5 mph - N/A   Overcast
12:21 PM 78.8 °F 71.6 °F 78% 30.15 in 10.0 mi NE 11.5 mph - N/A   Overcast
12:53 PM 78.1 °F 71.1 °F 79% 30.13 in 10.0 mi NE 13.8 mph - N/A   Mostly Cloudy
1:00 PM 78.8 °F 71.6 °F 78% 30.13 in 10.0 mi NE 13.8 mph - N/A   Mostly Cloudy
1:17 PM 78.8 °F 71.6 °F 78% 30.13 in 10.0 mi NE 13.8 mph - N/A   Mostly Cloudy
1:53 PM 79.0 °F 71.1 °F 77% 30.12 in 10.0 mi NE 12.7 mph - N/A   Overcast
2:53 PM 78.1 °F 71.1 °F 79% 30.10 in 10.0 mi NE 17.3 mph - N/A   Overcast
3:05 PM 77.0 °F 71.6 °F 83% 30.10 in 10.0 mi ENE 13.8 mph - N/A   Overcast
3:12 PM 75.2 °F 69.8 °F 83% 30.10 in 10.0 mi NE 13.8 mph - N/A   Overcast
3:53 PM 78.1 °F 70.0 °F 76% 30.09 in 10.0 mi ENE 15.0 mph - N/A   Overcast
4:53 PM 77.0 °F 70.0 °F 79% 30.09 in 10.0 mi NE 15.0 mph 21.9 mph N/A   Mostly Cloudy
5:01 PM 77.0 °F 69.8 °F 78% 30.09 in 10.0 mi NE 15.0 mph - N/A   Scattered Clouds
5:53 PM 75.9 °F 70.0 °F 82% 30.10 in 10.0 mi NE 12.7 mph - N/A   Mostly Cloudy
6:16 PM 75.2 °F 69.8 °F 83% 30.10 in 10.0 mi NE 15.0 mph - N/A   Overcast
6:26 PM 75.2 °F 69.8 °F 83% 30.10 in 10.0 mi NE 13.8 mph - N/A   Mostly Cloudy
6:53 PM 75.0 °F 69.1 °F 82% 30.11 in 10.0 mi NE 15.0 mph - N/A   Mostly Cloudy
7:53 PM 73.9 °F 69.1 °F 85% 30.12 in 10.0 mi NE 18.4 mph - N/A   Mostly Cloudy
8:43 PM 73.4 °F 68.0 °F 83% 30.14 in 10.0 mi NE 18.4 mph - N/A   Mostly Cloudy
8:50 PM 73.4 °F 68.0 °F 83% 30.15 in 10.0 mi NE 19.6 mph - N/A   Overcast
8:53 PM 73.9 °F 68.0 °F 82% 30.14 in 10.0 mi NE 15.0 mph 24.2 mph N/A   Mostly Cloudy
9:22 PM 73.4 °F 68.0 °F 83% 30.15 in 10.0 mi NE 20.7 mph - N/A   Scattered Clouds
9:53 PM 73.0 °F 66.9 °F 81% 30.15 in 10.0 mi NE 23.0 mph 27.6 mph N/A   Mostly Cloudy
10:00 PM 73.4 °F 66.2 °F 78% 30.15 in 10.0 mi NE 19.6 mph - N/A   Scattered Clouds
10:53 PM 73.0 °F 66.0 °F 79% 30.15 in 10.0 mi NE 20.7 mph - N/A   Scattered Clouds
11:53 PM 73.0 °F 66.0 °F 79% 30.14 in 10.0 mi ENE 17.3 mph - N/A   Partly Cloudy